Location: ?????
(33.6267°N, 35.4675°E)
Time: 12:25:43
(UTC+00:00)

ATLAS 5 CENTAUR R/B - Pass Details

Date: 29 February 2020
Orbit: 548 x 1111 km, 63.4° (Epoch: 30 March)

Event Time Altitude Azimuth Distance (km) Brightness Sun altitude
Exits shadow 02:07:42 - 171° (S) 2,700 4.9 -25.7°
Rises 02:07:43 0° 170° (S) 2,697 4.9 -25.7°
Reaches altitude 10° 02:10:33 10° 148° (SSE) 1,816 4.2 -25.1°
Maximum altitude 02:13:02 16° 110° (ESE) 1,500 4.3 -24.6°
Drops below altitude 10° 02:15:37 10° 71° (ENE) 1,890 5.1 -24.1°
Sets 02:18:39 0° 50° (NE) 2,867 5.9 -23.4°
